Fredericksburg, IA (50630)

11:45 AM CST on February 07, 2016 (GMT -0600)
Spillville Iowa | | Change Station
CLOSE
Current Station
Personal Weather Station
Location: Fort Atkinson, IA
Elevation: 1129 ft
Nearby Weather Stations
Active Advisory: Blizzard Warning

Elev 1129 ft 43.17 °N, 91.97 °W | Updated 1 minute ago

Partly Cloudy
Partly Cloudy
36.2 °F
Feels Like 36 °F
N
2.0
Wind Variable Wind from WNW
Gusts 4.0 mph

Today
High -- | Low -- °F
--% Chance of Precip.
Yesterday
High -- | Low -- °F
Precip. -- in
Pressure 29.77 in
Visibility 10.0 miles
Clouds Clear
Windchill 36 °F
Dew Point 30 °F
Humidity 79%
Rainfall 0.00 in
Snow Depth Not available.
7:17 AM 5:28 PM
Waning Crescent, 1% visible
METAR KCCY 071735Z AUTO 28015G22KT 10SM CLR 03/M02 A2977 RMK AO2
Pressure 29.77 in
Visibility 10.0 miles
Clouds Clear
Windchill 36 °F
Dew Point 30 °F
Humidity 79%
Rainfall 0.00 in
Snow Depth Not available.
7:17 AM 5:28 PM
Waning Crescent, 1% visible
METAR KCCY 071735Z AUTO 28015G22KT 10SM CLR 03/M02 A2977 RMK AO2

10-Day Weather Forecast

Almanac

Astronomy

Feb. 07, 2016 Rise Set
Actual Time
Civil Twilight
Nautical Twilight
Astronomical Twilight
Moon
Length of Visible Light
Length of Day
Tomorrow will be .
, % of the Moon is Illuminated

Today's Extremes

State Highs State Lows

Community

WunderPhotos

Upload Photos

1,891,248 photos uploaded!

WunderBlog® & News

Nearby

Air Quality

  Air Quality AQ Index Pollutant
Not available.

Snow Depth

Station Depth Elevation

Earthquake Activity

City Distance Mag. Time & Date
Minimum magnitude displayed is 2.5.

Coastal Water Temperatures

Place Temperature

Stations

Nearby Weather Stations

Station Location Temp. Windchill Dew Point Humidity Wind Precip. Elev Updated Type
                   

Watches & Warnings

Blizzard Warning
Issued: 10:59 AM CST Feb. 7, 2016 – National Weather Service

... Blizzard Warning remains in effect from 7 PM this evening to
6 PM CST Monday...

* blizzard conditions to develop around 7 PM... diminishing during
the afternoon Monday.

* Winds gusting as high as 45 mph will cause whiteout conditions
in blowing snow. Significant drifting of the snow is likely...
especially in open areas.

* Total snow accumulations of up to 1.5 inches are expected from
snow showers.

* Travel will be very difficult to impossible... including the
Monday morning commute.

Precautionary/preparedness actions...

A Blizzard Warning means severe winter weather conditions are
expected or occurring. Falling and blowing snow with strong winds
and poor visibilities are likely. This will lead to whiteout
conditions... making travel extremely dangerous. Do not travel. If
you must travel... have a winter survival kit with you. If you get
stranded... stay with your vehicle. The latest Road conditions for
the state you are calling from can be obtained by calling 5 1 1.